RH
47 44 47 46 55 55 48 59 55 49 64 65 66 73 76 74 67 48 34 42 48 43 44 39 37 36 32 41 48 45 46 45 44 44 42 43 43 42 42 42 42 42 40 28 17 16 16 16 18 18 18 18 18 18 19 21 22 26 28 29 30 30 31 32 35 38 39 39 38 38 39 40 44 46 45 44 42 40 39 38 39 41 41 41 39 38
42 37 39 49 60 55 48 62 59 48 63 72 69 71 73 66 54 36 26 39 44 37 37 34 34 36 32 38 46 47 48 48 44 43 44 44 45 44 43 45 44 42 40 26 16 17 16 17 18 18 19 18 19 20 19 22 25 28 30 29 30 31 32 34 37 39 40 39 38 38 39 41 45 47 45 46 45 44 43 42 41 42 42 42 40 38
41 31 32 48 57 55 63 72 54 44 60 70 65 57 55 54 47 37 31 37 41 35 30 32 38 41 40 44 49 49 48 47 44 41 43 44 44 44 45 47 45 40 37 27 20 18 16 19 19 18 19 18 20 20 19 23 26 28 30 30 31 32 35 37 39 40 40 39 39 39 40 42 47 48 47 48 48 47 47 46 45 45 44 43 42 40
29 23 33 53 58 50 59 72 60 48 53 53 44 39 44 47 39 33 32 33 39 41 37 40 48 50 53 56 52 53 53 50 49 47 46 46 46 47 47 45 39 34 32 25 21 20 18 19 19 19 20 20 21 20 20 23 25 27 30 31 32 34 37 39 40 41 40 39 39 40 42 45 48 47 47 47 48 49 50 51 51 50 49 46 44 44
30 30 40 59 70 57 46 61 61 39 38 52 47 36 40 42 35 33 38 40 40 49 52 45 47 56 61 61 55 54 54 51 51 51 49 50 51 49 45 41 36 33 28 24 23 22 22 20 20 21 20 21 22 20 21 22 24 29 31 32 33 35 37 39 42 41 39 39 41 44 47 48 48 47 49 51 53 54 55 56 56 55 54 53 51 49
45 49 47 49 64 62 41 41 47 35 37 53 54 44 37 37 42 45 47 47 41 45 50 43 50 65 63 59 60 55 53 52 51 52 51 53 54 45 36 34 34 31 27 26 26 23 22 21 21 22 22 23 22 21 22 22 25 31 34 34 34 36 39 42 43 40 38 41 45 49 51 51 51 53 55 57 58 57 56 56 56 56 56 57 58 55
42 54 56 48 54 56 43 38 43 43 40 41 47 50 46 43 50 50 46 51 49 43 41 42 56 69 58 50 59 61 58 57 52 52 54 53 51 42 33 30 28 27 28 30 28 23 22 23 23 24 23 23 22 22 22 22 28 34 35 34 34 35 38 40 39 37 38 42 47 52 52 53 55 59 60 59 57 55 53 53 53 53 53 56 59 58
36 41 53 56 57 47 31 27 34 41 39 44 52 49 48 49 49 51 51 54 56 49 50 55 54 60 59 54 64 69 63 60 55 55 57 51 46 39 33 33 30 28 31 32 30 26 24 24 25 26 24 23 23 23 23 25 32 36 34 33 34 34 36 36 36 36 38 42 49 53 53 55 58 62 62 57 53 51 50 49 47 47 47 48 52 57
37 31 38 45 47 36 19 13 31 47 40 47 60 52 52 56 53 57 54 51 55 54 61 65 48 43 52 55 66 71 64 64 62 59 59 51 44 40 34 33 32 31 32 32 30 27 26 26 26 26 25 24 25 24 25 30 34 34 33 33 34 34 36 36 36 39 41 44 51 54 56 63 64 60 56 52 50 49 47 46 44 43 43 43 45 52
38 44 45 36 25 21 23 23 38 51 41 46 60 52 50 53 48 46 44 43 54 62 61 52 38 38 47 47 58 69 67 70 69 64 64 54 41 39 37 34 31 31 34 34 32 28 27 27 26 26 26 25 26 26 29 33 34 33 32 33 34 35 36 36 38 41 43 47 51 53 60 68 64 55 53 52 51 48 47 45 43 40 40 43 45 50
44 59 57 42 27 24 33 38 46 54 51 54 56 41 33 36 39 52 64 56 49 61 66 48 33 39 48 44 52 70 73 73 72 65 60 51 38 35 38 35 32 33 35 35 33 29 28 28 27 27 27 27 28 29 33 35 33 32 33 34 35 36 37 37 40 43 46 49 49 52 62 67 61 56 55 53 51 49 46 43 41 42 42 47 51 53
51 54 53 54 49 40 38 38 47 62 63 54 47 33 22 28 43 65 80 66 42 44 56 51 37 39 47 43 48 67 72 70 67 53 41 36 34 34 35 32 32 37 36 33 33 31 30 29 29 29 29 30 31 32 34 32 31 33 34 36 37 37 39 41 44 47 48 48 48 51 58 61 58 56 55 53 51 48 45 43 43 45 48 54 59 58
50 49 47 51 48 39 34 29 36 56 59 43 37 37 35 38 48 53 52 50 41 32 36 43 36 34 39 37 46 62 65 65 58 41 32 30 29 30 30 29 31 35 33 32 33 33 32 31 31 31 31 33 33 31 30 30 33 35 35 37 39 40 42 44 45 46 46 46 48 51 55 58 58 57 55 54 51 47 44 43 46 52 60 66 68 65
44 51 45 38 35 34 31 23 23 34 40 34 33 41 44 42 44 44 41 46 43 30 30 35 36 43 40 35 53 65 65 68 56 35 31 31 27 26 27 29 31 32 31 33 34 32 33 33 32 33 33 33 31 29 30 32 35 36 37 38 40 42 42 42 43 43 45 50 53 55 58 60 59 59 57 52 49 46 42 47 59 71 76 75 74 75
37 39 38 32 27 30 29 26 26 27 36 45 41 38 39 41 44 45 47 49 40 34 34 29 44 65 49 40 61 63 57 66 53 33 31 32 28 27 29 30 32 32 32 33 34 32 33 34 33 33 32 30 29 29 32 34 35 36 38 40 41 41 40 40 42 45 51 55 55 55 57 61 62 61 57 51 48 43 46 65 79 79 74 70 75 85
36 32 41 43 35 29 27 39 45 35 38 51 48 39 40 45 47 45 51 48 38 46 53 43 55 67 45 44 61 48 37 45 40 31 33 33 31 30 33 34 33 34 34 34 34 34 35 34 32 31 29 29 30 32 34 34 35 37 39 40 39 40 40 42 46 51 55 56 53 53 58 66 67 61 55 50 45 44 59 80 80 67 60 60 69 80
38 36 40 44 43 34 30 47 53 36 33 42 42 39 42 45 41 41 54 56 49 56 59 48 50 51 42 50 56 41 35 37 36 37 36 34 34 34 36 37 35 36 35 35 35 35 37 34 30 28 29 30 31 33 35 35 36 37 38 39 39 40 43 46 51 53 54 55 55 59 68 71 66 58 52 46 45 58 75 77 65 57 55 55 61 69
45 43 41 39 38 39 46 53 51 44 40 39 40 41 45 53 55 55 57 58 58 57 50 44 44 44 46 54 50 40 42 42 39 39 36 34 37 36 38 38 36 37 36 35 36 37 37 31 28 29 29 31 32 33 35 35 36 38 38 39 40 43 47 49 51 52 54 58 60 67 74 72 63 55 48 47 59 74 75 62 54 54 56 58 63 67
53 44 48 48 36 40 56 51 43 51 47 38 42 45 47 53 56 60 59 58 63 59 48 44 44 50 58 59 51 44 43 43 40 37 36 38 39 38 39 39 38 37 37 38 39 40 36 28 28 30 30 32 33 34 35 36 37 38 38 40 42 45 47 47 49 52 57 61 59 63 68 68 62 53 49 59 73 72 60 52 53 56 60 65 69 71
57 41 47 52 39 36 45 40 37 47 49 46 48 48 50 51 49 54 55 59 65 62 57 53 48 58 64 53 43 41 40 41 40 38 38 39 39 38 39 40 40 39 38 40 42 40 33 28 29 30 31 34 34 34 36 37 38 39 40 42 44 45 45 47 51 55 57 57 54 55 61 63 60 53 56 67 69 59 51 52 57 63 67 70 75 80
55 46 49 50 47 41 37 37 35 34 40 49 49 46 49 49 49 53 52 56 60 57 60 63 55 56 52 38 34 38 38 37 38 40 40 39 39 38 39 41 41 40 40 41 42 36 31 29 30 30 32 34 34 36 37 37 40 41 42 43 44 45 46 49 54 55 54 54 54 56 60 61 58 53 57 64 60 53 54 57 64 68 68 71 80 86
51 53 57 52 49 41 31 33 36 36 43 50 51 51 53 52 52 56 58 62 66 64 62 63 64 57 42 31 32 36 37 36 37 40 41 40 40 39 40 42 41 41 41 42 39 33 31 31 31 32 33 34 35 37 38 40 42 43 43 44 45 46 49 51 53 52 52 54 56 58 59 58 57 54 56 59 57 54 55 60 65 67 66 74 82 82
53 57 67 66 56 41 32 38 48 52 49 44 46 50 56 61 58 56 59 59 64 71 67 66 74 64 40 30 32 35 39 39 38 42 44 42 41 40 42 42 42 42 41 41 36 31 32 32 31 34 34 35 37 38 40 42 44 45 45 45 46 48 49 50 51 51 52 54 56 58 58 57 59 59 56 57 58 57 57 60 63 65 70 77 80 77
56 58 61 57 48 37 36 41 49 54 47 41 46 52 56 59 55 56 61 64 73 79 71 73 78 60 37 34 33 34 42 44 42 45 46 44 42 41 43 44 44 42 41 38 34 31 32 31 32 34 34 36 39 40 43 44 45 47 46 47 48 49 49 49 50 50 52 56 58 58 57 57 59 60 57 56 57 57 58 61 64 69 73 76 76 75
47 53 51 48 49 46 40 36 37 42 42 38 41 52 58 56 57 62 64 71 80 71 65 80 79 50 34 37 35 36 46 49 47 45 44 45 44 42 44 46 43 42 40 37 34 33 33 33 34 35 35 38 41 42 45 46 47 48 48 49 49 49 49 49 49 51 54 59 60 57 56 56 57 57 55 55 56 58 61 65 68 72 73 73 73 73
45 49 47 46 57 59 51 45 39 39 41 37 35 44 52 53 58 61 60 73 78 61 63 85 77 45 31 34 38 44 52 54 50 48 45 45 44 44 45 44 42 42 40 36 36 36 35 35 35 35 37 39 42 44 47 48 49 49 49 50 50 49 50 49 49 53 57 60 59 55 54 54 54 54 54 56 58 61 64 68 70 71 71 70 71 74
55 61 54 48 57 57 49 42 35 37 44 42 40 44 48 53 62 66 68 73 69 59 62 65 57 48 43 41 46 53 56 56 53 52 50 46 44 44 43 43 44 42 39 38 39 38 37 36 35 36 39 42 44 46 48 50 51 51 51 51 51 50 50 49 52 56 58 59 57 54 53 52 53 53 55 58 60 62 64 65 67 69 70 71 73 77
52 60 59 55 57 50 44 40 35 41 44 40 44 49 50 54 60 66 70 62 54 67 71 49 43 57 56 47 52 57 56 56 55 53 51 46 44 43 43 45 46 43 41 43 43 41 39 38 38 40 42 43 46 47 49 53 53 52 53 53 52 52 51 52 55 59 59 57 55 53 52 52 53 55 56 58 59 61 62 63 66 69 71 73 76 79
48 63 66 56 53 48 45 42 37 40 41 40 48 49 45 47 48 54 62 55 54 72 72 49 48 61 55 47 52 56 55 55 54 51 48 45 45 46 48 48 47 47 50 49 46 43 41 41 42 43 44 45 47 48 52 55 54 54 55 54 53 53 53 55 58 60 59 56 55 53 52 53 55 56 57 58 59 61 62 64 67 69 72 75 77 78
52 70 79 65 57 51 45 41 39 43 46 43 42 39 36 39 44 50 55 54 60 67 58 49 53 53 47 48 53 52 50 51 50 48 48 48 49 50 50 50 51 54 55 51 46 44 44 44 44 44 46 47 47 52 57 57 55 56 56 56 55 56 56 58 60 60 58 56 55 53 53 54 55 56 57 58 60 62 64 66 68 71 73 75 76 78
48 69 84 74 63 53 42 39 40 43 45 42 38 37 37 39 50 62 61 57 61 60 48 47 55 54 47 49 54 51 49 51 52 53 54 52 50 52 53 56 60 58 53 49 47 46 45 45 45 46 48 48 51 57 60 56 55 57 58 58 58 58 59 59 59 59 58 56 54 53 54 54 55 57 59 60 62 64 65 68 70 72 73 74 77 79
52 70 82 77 72 58 40 36 38 35 41 51 50 43 41 44 56 67 63 53 51 51 50 57 65 63 54 52 56 55 53 56 56 57 57 53 51 55 59 64 65 59 52 49 47 46 46 45 47 48 49 52 58 62 59 56 56 58 59 59 60 60 60 59 59 59 57 56 54 53 54 55 57 60 61 63 65 66 68 70 72 73 75 77 79 81
62 64 71 77 74 57 39 37 41 42 50 59 55 46 44 44 47 49 46 40 37 41 54 66 67 61 56 59 64 62 58 58 57 57 57 55 57 62 65 66 65 57 51 48 46 47 47 47 49 50 52 59 64 62 58 55 58 60 60 59 60 61 60 59 60 58 56 56 55 54 56 59 61 63 65 67 68 69 70 72 74 77 79 80 81 82
82 73 72 76 68 59 52 42 43 54 60 53 45 42 41 39 40 41 39 37 37 39 49 60 61 59 61 64 65 64 59 55 54 53 52 55 63 69 69 66 62 55 50 48 47 47 48 50 51 53 59 67 66 61 57 56 59 61 61 61 62 62 60 60 59 58 57 56 54 57 62 62 60 62 67 69 70 71 73 75 77 80 81 82 84 84
80 76 72 74 72 69 61 53 62 71 54 39 44 46 38 34 35 37 39 39 40 46 55 63 65 64 64 62 58 58 55 51 52 54 53 55 62 68 69 66 60 53 50 49 49 50 51 53 56 61 68 70 65 60 59 60 60 61 62 64 65 62 60 60 59 59 57 56 60 67 70 67 64 65 70 72 73 75 77 79 81 83 84 85 86 87
61 69 65 67 74 67 56 63 77 66 38 32 45 45 37 36 36 44 56 52 43 52 63 67 67 64 61 58 54 52 52 53 56 55 52 53 56 60 67 66 58 52 49 49 51 53 54 57 62 69 73 70 64 60 61 61 61 62 66 67 65 63 61 60 60 59 57 61 72 77 72 70 72 73 75 76 77 79 80 83 85 85 87 89 89 91
63 71 60 59 67 60 58 69 66 53 46 45 42 35 34 37 37 51 71 62 45 52 61 61 64 62 56 54 53 51 55 61 63 56 50 52 56 60 65 62 55 52 48 48 52 55 57 61 69 74 73 67 64 63 62 61 62 65 68 65 64 64 61 61 61 59 60 72 81 77 71 73 77 77 78 79 81 83 85 86 88 90 91 93 94 95
55 61 61 67 72 62 62 72 68 64 64 53 40 34 33 38 38 47 68 69 52 50 53 54 58 58 53 53 54 55 63 75 78 66 56 59 65 66 63 57 53 51 48 51 58 61 63 69 75 75 71 66 65 64 63 63 65 67 66 64 64 64 62 63 62 60 69 82 82 73 72 76 78 78 81 84 86 89 91 91 93 94 95 97 97 97
57 67 71 73 76 69 67 77 82 81 68 48 40 37 36 43 43 44 62 71 57 49 49 50 54 54 52 54 56 61 76 90 89 73 63 68 72 67 63 58 53 52 53 57 62 65 69 74 75 73 70 68 67 66 64 64 67 68 66 65 66 65 65 64 62 66 80 86 78 72 74 77 79 83 87 90 93 94 95 96 97 98 99 100 100 100
80 86 76 67 70 71 71 76 79 79 67 47 37 39 41 39 37 53 80 78 55 47 47 46 50 52 51 54 59 69 83 91 87 75 68 71 70 66 63 59 55 57 59 61 63 67 72 72 70 71 71 68 67 67 65 67 71 71 68 68 69 68 65 64 68 78 86 81 72 74 79 82 86 90 92 94 95 95 97 99 100 100 102 102 101 101
87 88 79 72 71 73 75 75 72 71 63 46 37 39 38 36 49 79 94 73 50 47 46 44 49 51 50 56 62 69 75 74 71 69 67 67 67 64 60 57 57 60 60 61 66 71 71 68 68 71 70 67 67 69 68 70 75 74 72 72 71 68 66 72 81 84 80 74 74 80 85 86 88 91 94 96 96 97 98 99 100 102 101 101 101 100
72 74 76 74 70 68 67 67 71 70 54 39 37 34 34 55 81 85 67 49 45 48 45 44 49 50 51 55 59 62 63 61 62 66 65 64 64 62 59 59 60 61 61 63 67 71 70 65 64 66 69 69 70 70 68 70 74 77 78 75 70 69 76 84 84 77 72 76 84 88 87 86 88 91 95 96 96 99 100 98 99 100 99 99 100 99
60 61 71 71 61 57 61 70 83 79 51 33 38 40 42 60 71 58 46 47 48 45 46 48 50 50 53 56 56 56 57 60 64 64 61 61 61 59 59 61 61 62 64 66 67 68 66 61 59 64 72 75 71 67 67 69 73 79 80 74 73 80 86 84 77 71 76 85 91 90 87 86 89 92 94 94 96 100 100 98 97 98 98 98 98 98
59 56 67 72 63 59 68 75 73 61 42 33 39 45 45 47 47 45 50 53 48 45 49 52 52 51 53 56 57 54 55 62 63 59 59 61 59 58 58 60 60 60 62 67 70 66 60 59 64 71 74 73 69 68 70 72 75 80 79 78 84 90 84 76 73 76 85 92 92 88 87 88 91 92 93 96 98 98 97 97 97 97 97 97 98 98
58 50 55 63 63 58 56 53 44 37 37 37 37 40 42 42 43 47 50 51 51 51 51 54 57 56 53 54 55 54 57 61 59 57 60 60 58 58 58 59 59 56 58 67 69 63 60 66 73 75 73 72 72 72 73 74 76 80 85 88 90 86 78 76 80 85 92 94 90 87 88 90 92 92 93 94 95 96 97 97 98 98 97 97 98 99
52 44 44 49 53 51 42 36 36 38 39 37 36 40 44 45 47 50 51 54 55 52 52 57 59 57 55 54 55 57 59 59 58 59 58 55 57 59 58 59 58 54 59 68 67 64 70 75 75 75 77 76 74 74 76 76 78 85 93 93 85 77 78 83 87 92 95 92 88 88 90 91 92 92 92 92 93 96 98 97 98 100 98 97 99 99
52 40 38 38 44 54 51 41 39 40 39 39 41 43 45 48 50 51 53 56 55 54 57 59 57 57 57 55 56 60 60 58 59 60 56 56 60 61 60 60 58 55 62 68 66 67 76 77 76 80 82 78 77 78 77 77 85 93 92 84 77 78 85 91 93 95 95 90 89 91 91 92 94 93 91 93 94 95 95 95 97 100 100 99 100 100
52 42 43 41 43 52 51 42 39 40 40 41 44 47 50 53 54 54 54 55 55 57 59 57 56 59 59 56 58 61 60 60 60 59 60 64 65 62 60 58 56 57 62 65 65 67 72 76 80 84 85 83 82 80 78 84 95 95 83 75 79 86 92 95 96 96 95 91 91 92 92 93 94 92 92 94 94 94 95 95 95 99 101 101 101 101
48 45 47 45 46 52 49 42 43 48 48 45 45 50 53 54 56 57 56 55 57 60 61 58 57 58 59 58 59 61 62 63 62 61 67 69 64 59 58 57 58 61 62 64 66 68 72 78 83 85 88 87 82 82 90 96 94 85 78 79 86 92 96 100 100 98 96 92 91 92 93 93 92 92 94 95 94 94 94 94 96 100 101 98 97 99
46 47 47 52 61 65 56 46 49 59 62 54 50 53 55 55 58 60 58 58 62 65 63 60 59 59 59 59 61 63 65 64 64 67 68 63 57 56 58 62 66 65 64 66 68 71 76 81 84 88 90 85 83 92 99 94 83 78 81 86 90 94 100 104 103 99 95 92 92 94 94 93 93 94 95 95 96 96 94 91 93 97 97 93 93 97
42 42 43 51 62 59 48 44 49 58 60 55 52 56 57 56 59 61 60 61 66 66 63 64 65 64 62 62 65 66 65 66 68 68 60 53 55 61 65 68 69 66 67 69 71 77 84 84 87 92 89 84 92 100 93 82 78 81 86 90 92 96 102 104 101 97 93 92 94 95 94 94 95 96 95 96 97 97 97 95 92 90 91 92 92 94
Wind_Speed
4 5 4 1 4 6 6 5 5 4 5 5 4 4 6 6 6 7 7 6 2 2 7 7 7 11 12 8 9 9 8 9 8 8 7 6 6 6 6 6 6 6 5 9 11 12 14 14 15 18 21 24 26 25 24 25 22 18 18 20 22 21 21 22 22 23 23 24 25 25 25 26 28 29 30 32 32 32 33 32 31 30 29 29 30 29
5 6 1 6 8 7 5 4 3 1 1 2 3 4 5 5 7 8 7 6 3 3 7 8 8 12 12 8 9 9 8 9 10 10 8 7 6 5 6 6 5 4 4 7 9 11 13 14 16 20 24 25 25 24 25 24 19 17 18 21 23 22 21 21 22 23 23 23 24 24 25 26 27 28 29 30 31 32 32 32 32 31 30 30 30 29
6 2 6 8 6 4 1 3 3 1 1 1 0 1 4 4 5 8 6 4 3 4 9 9 6 10 11 7 5 8 8 6 7 9 8 8 7 5 6 5 5 5 4 4 6 9 11 14 18 22 23 23 22 23 26 23 19 20 21 23 23 21 21 21 22 22 22 23 23 24 25 25 25 26 28 29 30 31 31 31 31 30 30 30 30 28
3 3 7 4 2 2 1 4 5 4 2 1 1 2 5 4 2 5 4 2 2 3 8 10 7 7 7 4 2 0 3 5 5 7 7 7 7 5 5 6 5 5 4 4 4 6 10 14 17 19 20 20 21 24 27 25 24 25 23 24 24 21 21 24 24 23 23 24 26 26 25 24 24 26 28 29 29 29 30 30 31 31 32 31 30 30
1 7 3 4 4 2 0 4 5 4 4 3 4 4 5 5 3 6 6 7 7 5 5 6 7 5 4 3 2 4 4 6 5 7 7 5 6 6 6 6 5 5 4 3 4 5 9 12 15 17 19 20 22 25 29 30 29 26 24 26 26 25 27 28 25 24 25 27 27 25 24 24 25 26 26 26 26 26 27 28 30 31 32 33 34 34
2 5 1 4 5 5 2 4 1 1 4 5 5 7 8 6 6 8 8 8 8 6 2 5 5 5 4 2 3 1 4 5 4 6 7 5 6 7 6 5 4 3 2 3 4 5 9 12 15 17 19 21 23 27 31 34 31 25 24 28 28 29 30 28 25 26 29 29 26 23 23 24 24 23 23 23 23 25 27 27 29 30 31 32 34 34
1 3 4 4 4 6 5 3 3 3 3 4 5 6 6 5 6 10 10 6 3 6 4 3 1 5 5 4 4 3 4 5 3 4 5 5 6 5 5 4 3 4 4 4 4 6 10 12 14 16 19 23 27 30 33 34 29 23 25 28 29 31 30 28 29 31 32 29 25 24 24 25 23 22 22 24 25 26 27 28 30 31 31 32 33 34
2 4 6 5 5 6 4 4 4 4 4 4 5 2 3 7 9 11 9 5 4 5 6 2 3 4 4 4 3 2 6 4 3 3 4 5 5 5 4 4 4 4 5 5 5 6 9 12 14 16 21 26 28 31 33 31 25 23 27 29 29 30 29 30 32 32 32 30 28 27 27 26 24 22 22 24 25 26 28 30 32 33 34 35 36 36
2 2 3 3 5 3 2 4 3 5 2 7 6 2 5 8 9 10 7 5 3 2 6 4 1 2 5 3 2 2 5 4 6 5 5 6 5 5 4 5 5 4 5 5 5 7 10 13 16 18 22 25 27 29 30 25 22 25 29 29 30 30 30 31 31 31 31 30 28 28 28 26 24 22 23 24 26 28 30 33 35 37 38 39 38 37
0 2 3 4 3 2 5 6 4 6 5 7 5 4 6 6 7 6 3 3 1 1 5 6 1 0 5 4 1 1 3 5 5 4 5 6 5 4 5 5 5 4 5 5 6 10 13 14 16 18 21 24 27 29 27 23 23 28 29 29 30 30 31 32 32 31 30 28 27 28 27 24 22 22 24 26 28 31 32 34 38 40 41 40 38 37
3 2 2 3 2 3 3 5 3 6 6 6 6 5 6 5 3 2 0 1 2 2 6 6 2 2 3 5 3 3 4 5 6 5 3 3 4 4 5 5 5 5 5 5 7 11 14 15 15 18 22 26 29 29 27 25 27 30 30 31 32 33 34 34 32 31 29 28 28 29 27 23 23 24 24 26 30 33 35 37 40 40 39 36 34 34
6 3 1 2 2 1 4 5 3 1 2 3 4 4 6 6 4 4 4 4 2 5 6 4 2 3 3 5 3 4 2 5 7 7 4 4 5 5 4 4 4 4 4 5 6 9 12 13 15 20 26 28 29 29 29 29 31 32 32 33 34 35 35 33 31 30 30 30 30 30 28 25 25 25 25 27 31 35 38 41 40 37 35 33 31 31
5 1 3 4 2 2 3 4 6 5 5 5 4 4 5 5 5 5 5 4 3 7 6 3 1 2 5 6 4 4 2 5 7 7 6 4 4 3 2 2 3 3 5 6 6 7 8 11 17 23 26 26 26 29 31 31 32 32 33 34 34 34 34 33 32 33 33 32 32 31 30 28 27 26 27 29 32 37 41 42 38 32 28 26 25 27
5 4 4 4 2 1 3 2 5 4 4 5 2 2 2 2 4 5 5 4 6 10 5 3 2 5 5 4 3 3 3 5 7 7 5 5 5 3 2 2 4 5 6 6 5 7 8 13 20 22 22 23 25 30 31 31 31 32 34 34 33 33 35 36 37 37 35 32 31 31 31 29 27 27 29 30 34 39 41 38 31 26 23 22 24 27
4 5 3 2 1 1 0 2 3 2 4 4 2 3 0 2 1 4 4 4 9 12 8 2 2 4 4 3 2 5 6 6 5 5 5 5 5 2 1 2 4 5 5 5 6 9 12 16 20 20 20 23 26 28 29 29 31 32 33 33 33 35 38 40 40 36 33 31 32 34 33 30 27 27 29 32 35 37 37 32 25 22 22 23 27 29
2 5 6 4 1 0 3 3 3 1 4 3 2 2 2 3 3 3 4 6 7 9 8 3 2 5 2 2 5 6 6 7 4 4 5 5 3 1 0 2 4 5 5 7 9 10 12 15 18 19 20 22 24 26 27 28 31 31 32 34 35 37 39 39 36 33 32 33 36 37 33 28 26 28 31 35 36 34 30 26 22 22 24 25 28 28
1 5 7 6 4 1 3 3 1 1 2 2 1 2 4 3 5 1 5 3 3 6 6 2 4 4 1 1 4 5 4 4 3 4 5 3 2 2 4 5 6 7 8 9 9 8 9 14 17 19 20 21 23 25 26 28 30 31 33 35 37 38 37 36 33 33 34 35 36 35 30 28 28 31 35 37 35 30 24 22 23 26 27 27 28 27
1 6 8 4 4 4 2 2 2 1 2 1 2 4 3 1 4 2 2 4 4 8 5 2 7 6 2 3 1 4 6 6 7 7 5 5 7 8 8 8 9 9 8 8 8 7 8 13 16 18 19 22 23 25 26 28 30 32 34 36 37 36 35 35 35 35 34 33 33 32 30 30 31 33 37 35 30 24 22 24 27 28 27 27 28 28
1 5 8 3 4 6 2 2 4 4 1 2 3 2 1 1 3 2 1 3 5 9 8 6 10 6 3 4 1 6 9 10 10 8 6 8 10 9 8 9 11 10 8 8 7 4 7 12 15 17 19 22 24 25 26 28 31 33 35 35 34 33 35 36 36 35 32 31 33 33 32 32 31 33 35 30 24 22 24 28 29 28 27 28 28 28
0 1 6 3 3 5 4 3 4 5 4 2 1 2 2 2 4 2 1 2 3 8 10 11 11 4 2 1 4 6 8 8 7 6 6 7 7 6 7 8 9 10 9 8 6 4 7 12 15 17 19 21 23 24 26 28 30 32 34 34 33 34 37 36 34 33 32 32 35 36 33 31 31 32 30 25 24 26 30 31 28 26 26 27 27 27
1 1 5 6 4 4 3 2 2 2 2 2 2 3 3 1 2 3 2 2 1 6 8 10 10 3 1 2 5 6 7 5 3 4 4 5 5 6 7 8 8 9 9 8 5 4 8 13 17 19 20 21 21 23 26 28 30 31 33 33 34 35 35 34 33 33 34 34 36 34 31 29 29 28 26 24 26 29 30 28 25 24 26 27 26 25
1 1 3 6 5 4 6 5 5 5 4 3 2 3 3 2 1 4 6 1 1 3 5 8 12 6 2 4 5 7 6 4 2 3 4 5 6 7 8 8 9 9 9 8 5 6 9 14 18 20 21 21 21 23 26 28 29 30 32 33 34 34 33 33 34 35 35 35 34 31 29 29 28 27 26 26 27 26 25 24 23 25 28 28 25 24
1 1 2 6 5 8 13 4 4 3 4 4 3 2 2 1 2 3 8 5 2 3 3 6 10 7 2 5 5 6 5 4 2 3 6 7 8 9 10 10 9 9 10 8 5 8 12 16 19 20 21 21 22 24 25 27 28 30 32 33 33 33 33 34 35 35 35 34 32 30 30 29 28 27 26 25 25 23 23 25 26 27 27 26 25 26
1 1 2 6 6 8 10 2 4 1 1 0 3 2 1 1 2 5 6 4 3 4 4 6 10 5 2 4 3 7 8 7 7 8 9 10 11 12 13 12 10 10 11 8 6 9 14 18 19 20 21 21 22 23 25 26 28 30 32 32 32 32 34 35 34 34 34 33 31 30 30 29 28 26 25 24 24 24 25 26 26 26 26 25 26 27
2 1 2 6 7 7 7 4 2 2 1 1 4 3 2 3 4 4 3 2 3 6 5 6 11 8 2 2 6 13 13 12 11 11 11 12 12 13 13 11 11 12 11 8 7 10 13 16 17 19 20 21 22 23 24 26 28 29 30 31 32 33 34 34 34 33 33 31 30 29 28 28 26 24 24 24 25 25 25 25 24 25 25 26 27 28
2 1 0 1 4 7 8 7 7 7 5 4 5 6 5 3 4 4 3 2 4 8 5 3 9 13 10 10 13 14 12 11 12 12 12 12 13 13 12 11 11 12 10 8 8 11 13 14 16 19 21 22 23 23 24 26 28 29 29 30 32 33 34 34 34 32 31 30 30 28 27 26 25 24 24 25 25 24 24 24 24 24 26 27 28 28
1 1 2 4 6 7 9 11 10 8 8 11 13 14 10 5 3 2 2 3 7 11 9 6 10 17 18 17 14 11 10 10 11 11 12 13 14 14 12 11 12 11 8 7 9 12 14 14 16 19 21 23 24 25 26 27 27 28 27 29 32 33 34 35 33 31 31 30 29 27 26 25 25 25 25 24 24 24 24 24 24 25 26 27 27 26
3 2 4 6 8 10 12 15 14 9 10 14 16 15 13 9 4 3 3 9 10 9 11 12 15 19 19 15 11 9 9 11 11 12 13 14 15 15 13 13 14 10 7 9 12 14 15 14 14 17 21 23 25 27 27 27 28 28 27 28 32 34 34 34 32 31 30 30 28 26 25 25 25 25 24 24 24 24 24 24 24 25 26 26 25 24
4 3 5 3 7 10 11 13 15 11 10 12 12 13 13 12 9 6 8 11 9 6 12 18 20 20 17 11 9 10 11 12 14 14 14 16 16 16 16 15 13 10 10 13 14 13 14 14 14 17 21 23 26 28 26 25 27 28 28 29 33 35 35 33 31 30 29 28 27 25 25 26 25 24 24 24 24 24 24 24 25 25 25 25 24 24
3 3 3 2 6 11 11 13 13 10 9 10 13 14 13 10 10 9 9 10 8 9 14 19 21 20 13 9 10 13 14 14 14 14 16 18 18 18 17 14 10 10 13 14 14 14 14 14 16 19 21 23 26 26 24 24 27 29 30 31 33 35 34 32 30 29 28 27 26 26 26 26 25 25 25 25 25 25 25 25 25 24 24 25 25 25
0 3 2 2 5 10 10 10 10 8 9 13 16 15 11 8 7 6 6 6 7 11 16 18 20 15 7 9 13 16 16 16 16 17 18 17 18 19 16 11 10 12 14 14 14 14 13 14 17 19 21 25 26 24 23 25 28 30 32 32 34 35 33 31 29 28 27 26 25 25 25 25 26 26 26 26 26 26 26 25 24 24 25 26 26 26
1 3 3 5 5 9 7 8 13 14 11 10 11 11 10 8 4 3 4 5 7 14 19 18 14 10 7 11 15 15 16 18 18 17 17 17 19 17 12 10 12 14 15 15 15 14 14 14 15 17 22 26 25 23 24 27 29 31 32 33 34 33 31 30 29 28 27 26 24 25 26 25 26 26 27 27 26 26 25 24 24 25 26 26 25 25
1 1 4 3 4 10 10 10 13 14 10 7 6 5 6 6 6 5 6 7 10 13 14 11 9 10 12 14 15 15 16 18 16 15 16 18 16 13 10 11 14 14 14 15 15 14 14 14 15 19 24 25 22 22 26 30 30 31 32 34 33 31 30 29 28 27 26 25 25 26 25 24 26 28 30 29 27 26 24 24 25 26 26 26 25 24
2 1 3 0 1 9 13 12 10 7 7 7 3 2 1 4 8 10 11 13 14 11 8 8 11 14 16 15 16 18 17 16 15 16 18 15 11 10 12 12 13 14 14 14 14 14 15 17 19 23 24 21 20 25 29 30 30 31 32 33 30 28 29 29 28 26 25 25 26 25 25 27 30 31 30 28 27 25 24 25 26 26 26 25 25 23
1 1 3 1 2 6 8 8 8 7 7 7 2 2 1 3 6 12 15 15 14 11 10 11 13 15 15 15 16 17 17 17 17 18 17 12 9 11 12 12 13 14 14 14 14 15 18 20 23 24 21 17 21 27 29 29 31 32 32 30 28 27 28 29 27 25 25 26 25 24 27 32 32 29 27 28 27 26 26 27 27 27 26 25 23 23
0 1 2 1 2 4 6 7 6 9 11 8 4 3 4 6 8 13 16 12 7 6 9 12 14 14 14 16 16 16 17 18 16 13 12 12 13 14 12 12 14 15 14 15 16 17 22 26 25 21 17 18 23 28 28 30 32 33 30 28 27 27 28 27 24 24 27 25 22 25 31 32 29 27 27 27 27 27 27 28 28 27 26 25 24 23
2 1 1 2 1 1 6 7 7 10 11 5 6 7 8 9 12 13 14 9 4 4 10 14 14 15 16 16 17 17 19 17 13 10 10 14 18 16 13 14 17 16 17 19 22 25 30 30 24 17 17 21 25 27 29 32 33 31 29 27 27 28 28 25 23 26 27 22 22 29 32 30 28 28 27 27 28 28 29 28 28 28 26 25 24 24
2 1 1 2 2 1 4 7 7 10 9 3 6 10 8 7 13 13 10 5 2 8 16 17 15 18 18 16 18 18 17 14 11 10 13 17 18 14 14 18 20 20 21 23 26 30 32 27 19 15 19 25 27 28 31 33 32 29 27 27 28 28 26 24 26 29 25 21 26 31 31 29 28 28 27 28 28 29 29 29 28 27 26 25 25 25
3 1 4 2 2 2 3 5 5 7 6 4 11 14 9 9 15 13 8 4 5 14 20 18 17 19 17 17 18 16 13 12 11 12 16 19 18 14 15 18 20 23 27 28 29 29 26 21 17 17 22 26 28 30 33 33 30 26 26 27 28 26 24 26 29 28 23 24 30 32 30 29 28 27 27 28 29 29 29 28 28 27 26 25 24 25
4 4 3 2 4 4 4 4 4 4 4 5 13 15 12 13 15 10 8 9 12 18 19 17 18 19 17 18 17 13 12 13 12 15 18 20 20 19 19 19 21 24 27 30 30 26 22 22 22 21 24 27 29 32 34 31 26 24 27 28 26 24 26 29 29 25 25 30 33 31 29 28 28 28 28 28 29 30 30 28 28 28 27 26 24 24
3 3 2 1 4 6 5 4 5 4 2 5 12 14 14 15 12 8 7 11 15 19 18 16 18 19 18 18 15 12 12 14 15 17 19 19 19 20 22 24 27 28 29 29 27 23 23 25 25 24 26 29 30 31 32 28 24 24 27 26 23 25 28 29 27 27 31 34 32 29 29 29 29 30 30 29 30 31 30 29 28 28 28 27 26 25
3 3 2 2 3 5 5 5 7 4 1 8 16 16 14 13 8 6 9 14 16 18 17 16 18 17 17 19 17 14 15 17 18 18 18 18 18 17 21 25 28 30 31 28 24 24 26 27 28 28 28 28 30 31 30 27 25 25 25 24 25 29 29 27 28 33 35 34 30 29 30 32 32 31 30 30 31 31 31 31 29 28 28 27 26 25
2 2 4 4 3 4 5 4 5 5 4 14 20 14 10 9 7 8 12 15 15 16 16 15 16 16 18 20 20 19 19 19 19 19 18 18 17 17 21 24 24 26 28 27 25 27 30 30 30 29 27 27 31 32 29 27 25 24 24 26 28 28 27 29 33 36 35 31 28 30 34 35 34 33 31 31 31 30 31 31 30 28 27 24 24 24
1 1 3 3 2 3 5 4 4 6 7 14 15 10 7 9 9 10 12 12 13 14 13 12 14 17 19 21 22 23 21 18 19 19 19 17 17 19 24 26 26 28 29 27 26 29 33 31 29 27 28 31 33 31 28 26 24 24 26 28 27 27 30 34 36 36 33 29 29 33 35 35 34 33 31 30 30 30 30 31 30 28 26 23 21 20
3 3 2 3 3 2 5 8 8 6 7 10 9 7 9 10 10 10 11 11 11 12 11 12 15 18 20 20 21 22 19 18 19 18 18 19 19 21 26 27 28 31 31 28 27 31 33 30 27 28 31 33 32 29 27 25 25 26 27 27 27 30 34 37 37 34 31 30 32 35 35 34 34 31 30 30 30 30 30 30 29 27 25 23 21 18
4 2 2 2 4 4 6 8 8 8 10 12 9 6 8 10 9 10 10 10 10 11 11 13 16 17 18 18 18 19 18 18 18 18 20 21 21 24 28 29 30 33 32 28 30 33 31 28 28 31 32 31 30 29 26 26 27 27 25 26 31 35 36 36 35 32 30 32 35 35 34 34 32 30 31 32 31 29 28 28 27 26 24 22 21 19
3 1 1 2 5 6 6 6 8 11 12 12 9 8 10 11 9 9 10 10 11 11 11 14 16 17 17 17 17 18 18 19 19 20 20 20 20 23 27 28 30 32 31 29 31 32 29 28 30 31 31 31 30 28 27 28 27 26 27 31 35 36 36 35 33 30 31 34 35 34 33 32 30 30 33 33 32 31 30 28 26 23 22 21 20 20
2 1 3 5 6 7 8 8 9 10 9 7 8 10 11 12 11 12 12 13 14 15 16 18 19 16 15 16 16 18 19 20 21 21 20 18 19 23 27 30 31 31 31 31 31 30 29 30 31 30 30 30 28 28 30 28 25 26 32 35 35 35 35 33 31 30 32 33 33 32 31 29 28 31 33 33 32 31 30 29 28 24 22 21 20 21
2 2 4 6 8 8 8 10 13 14 10 8 11 12 11 11 12 13 14 15 16 16 18 21 22 19 18 18 18 19 20 20 22 23 20 17 20 25 29 31 30 29 30 30 29 30 32 32 31 31 30 28 28 30 29 26 25 30 34 34 34 35 35 33 30 29 30 32 32 31 29 28 29 31 32 32 33 33 29 28 27 25 24 23 22 23
3 4 4 6 7 7 8 10 12 12 11 11 13 14 13 12 12 14 16 17 16 16 17 19 21 22 22 21 22 21 19 19 23 25 21 20 24 28 30 30 29 28 29 28 29 31 32 32 32 31 29 29 31 30 26 26 30 33 34 33 34 35 35 33 30 28 29 31 31 29 28 29 30 31 31 31 32 32 32 30 27 22 20 23 26 26
3 4 4 5 6 7 9 9 8 7 9 12 14 13 13 14 14 15 18 18 16 17 19 18 16 17 19 21 24 24 20 21 26 26 23 24 28 30 30 29 28 28 28 28 29 31 32 33 32 30 29 31 31 27 27 31 34 34 34 34 35 35 35 32 29 28 29 31 29 28 28 28 29 30 30 30 28 28 29 30 29 24 20 22 26 27
Wind_Direction
62 68 48 208 231 257 255 213 195 209 204 218 234 229 247 261 270 271 268 275 336 313 260 252 264 274 276 249 211 208 184 181 176 162 168 158 150 151 146 155 147 133 116 93 71 43 30 25 15 9 8 5 1 357 348 342 342 350 353 347 345 343 339 335 333 333 332 332 331 330 326 321 317 314 313 312 311 311 309 309 308 306 304 302 300 297
64 75 313 232 219 230 250 231 217 248 218 225 223 239 274 256 253 272 273 284 357 11 280 273 281 276 273 260 220 195 176 185 179 164 165 152 146 151 148 152 138 113 75 72 53 31 25 18 12 10 8 3 355 349 345 343 345 348 345 342 340 335 330 329 330 329 326 325 326 324 321 318 314 311 311 309 308 309 307 307 306 304 303 301 298 295
41 79 252 246 217 205 13 62 77 41 94 89 226 248 291 272 271 287 269 265 13 0 296 291 288 275 281 289 235 193 173 173 167 154 151 144 141 153 156 139 107 84 48 39 31 21 16 12 11 8 3 356 348 346 347 345 342 338 336 337 335 328 324 325 325 323 320 320 321 319 317 316 312 309 309 307 307 307 306 305 305 304 303 301 297 293
54 247 252 252 197 181 6 34 57 33 38 58 312 297 282 287 330 300 280 300 319 266 275 293 295 278 296 346 24 66 117 108 113 126 128 134 140 148 142 116 100 102 72 22 5 5 7 8 7 1 356 351 348 348 347 343 337 332 333 337 334 325 322 323 323 322 322 321 320 317 315 313 309 307 306 304 304 304 305 306 305 305 303 300 296 293
198 253 255 47 39 121 226 347 41 35 337 292 241 223 249 272 251 252 282 315 309 271 259 306 313 293 324 10 46 24 62 99 95 110 121 119 113 106 101 100 106 120 103 33 2 352 359 0 356 354 351 350 349 349 347 343 335 330 334 339 336 329 324 323 324 327 326 322 317 315 313 312 309 306 305 305 305 306 307 307 306 306 304 301 296 292
264 268 304 50 24 55 62 320 23 124 326 310 254 214 221 259 265 266 297 328 327 306 320 25 348 296 325 325 197 96 84 110 98 120 134 108 96 98 95 103 103 96 78 28 8 349 351 351 349 349 349 350 351 349 349 344 334 329 338 342 339 334 329 327 330 330 326 319 312 311 311 310 307 304 304 303 305 307 307 307 306 306 305 302 299 295
271 335 36 82 52 39 36 319 251 147 46 319 263 207 213 265 290 289 303 323 315 283 292 31 299 265 311 312 231 172 127 136 133 132 132 112 105 104 98 106 90 53 23 0 353 347 347 345 342 344 349 353 352 349 347 341 334 335 344 345 342 338 332 329 327 325 322 315 306 306 306 303 298 295 296 299 302 304 305 306 306 305 305 303 300 298
240 349 19 54 54 39 23 328 257 150 93 275 248 155 288 301 294 287 292 280 250 279 302 317 173 248 292 289 264 148 128 160 195 156 131 122 116 116 111 97 71 41 15 353 343 342 338 335 338 346 352 353 348 345 342 339 339 345 346 343 339 335 328 324 321 318 317 311 304 305 304 298 293 292 294 298 302 303 304 305 304 303 303 301 299 296
238 335 338 45 48 35 296 282 229 152 158 261 251 273 290 283 276 278 283 272 259 304 305 299 117 269 268 273 310 122 137 191 213 178 142 129 127 135 117 73 52 29 5 350 340 334 330 336 345 350 349 345 342 342 341 341 346 347 342 337 333 329 324 321 318 316 314 309 306 306 303 296 294 296 300 303 305 305 306 305 303 303 302 299 295 291
272 259 218 119 90 264 263 263 208 165 222 272 292 296 277 263 270 284 280 274 320 99 266 274 93 144 269 276 303 165 179 208 206 172 149 142 136 123 91 61 39 13 356 348 338 332 332 340 346 344 340 339 341 344 344 346 348 343 338 333 330 326 323 320 317 315 314 312 311 309 303 297 299 302 305 308 308 307 308 306 304 302 299 294 290 286
312 297 181 129 175 209 277 287 230 187 235 307 351 331 302 292 304 337 2 74 33 263 252 253 160 111 291 277 222 211 208 179 153 134 134 132 109 80 66 52 22 359 350 346 340 338 338 339 338 337 339 343 349 351 351 348 344 339 335 332 329 326 324 321 319 318 317 316 316 312 305 298 300 303 306 308 308 308 308 306 303 300 295 290 285 281
334 19 193 279 247 122 19 331 308 289 309 7 18 351 329 321 349 7 357 33 16 275 263 239 182 144 250 272 248 240 213 133 123 117 98 70 66 56 55 43 7 346 346 345 340 340 338 333 335 343 349 353 356 355 350 343 338 335 333 330 327 325 324 322 321 320 319 317 316 312 305 298 299 302 305 307 306 307 308 305 301 295 290 287 285 282
333 288 275 311 318 78 35 346 325 341 21 23 15 19 2 337 352 350 331 344 289 275 254 201 313 284 248 259 244 231 195 115 109 105 100 90 85 80 88 57 0 352 355 347 343 338 332 337 348 354 357 358 356 350 343 338 336 333 331 329 326 324 325 324 322 321 318 315 314 311 305 300 300 302 305 306 306 307 307 301 295 289 288 291 295 292
327 308 321 337 331 63 81 4 322 321 347 343 348 59 29 356 348 317 304 310 289 285 263 162 3 308 278 283 232 193 121 124 115 97 107 117 100 90 110 62 8 3 357 344 339 337 342 355 358 358 357 355 349 343 339 337 335 332 329 327 326 324 325 324 321 319 316 314 314 312 306 300 300 303 306 306 307 307 303 294 288 289 297 302 304 300
319 310 307 302 308 24 44 213 230 263 295 292 183 132 103 167 234 278 264 275 291 297 297 353 9 254 269 336 129 119 99 119 117 85 95 100 86 77 97 44 10 358 350 342 345 349 357 1 359 356 353 349 343 339 336 334 332 330 327 326 325 324 323 321 318 316 315 316 316 313 305 298 300 304 306 307 306 303 296 292 293 300 306 304 301 300
277 267 261 268 244 227 288 232 156 41 310 278 154 87 317 184 181 249 233 237 274 291 290 301 251 220 217 56 107 107 102 119 112 80 87 88 90 148 129 19 7 1 357 356 355 354 359 358 355 352 347 343 339 335 333 331 330 328 326 325 324 322 321 318 315 315 316 317 317 312 304 300 304 308 308 307 304 298 295 298 305 308 306 302 300 300
310 274 275 303 321 271 236 224 159 45 295 308 25 269 256 177 144 232 272 273 305 290 278 271 277 285 0 108 132 97 77 100 75 47 75 71 15 6 10 6 3 6 4 357 351 347 352 353 349 345 340 336 334 331 329 328 328 326 324 323 322 320 319 317 316 316 316 316 315 311 306 306 309 310 309 306 300 296 300 307 308 306 303 299 297 297
235 280 286 290 296 280 208 194 282 293 148 126 280 258 259 89 98 107 284 315 319 285 271 230 275 293 331 261 180 60 20 9 6 16 40 20 7 8 1 358 359 2 358 345 340 339 347 346 340 336 333 331 330 328 327 326 326 325 323 322 320 319 319 319 318 316 315 316 316 312 306 306 309 309 307 303 298 298 305 307 306 303 300 298 297 297
191 290 297 249 235 285 339 53 319 317 106 172 228 249 62 333 303 3 319 288 291 285 285 282 279 272 226 250 27 35 7 359 354 4 23 9 7 2 349 351 353 351 342 333 330 328 338 337 330 328 327 326 327 326 325 325 325 323 322 321 321 320 320 319 317 316 316 317 318 313 306 305 308 308 304 300 300 305 309 307 305 302 300 300 300 298
140 285 293 279 259 303 347 21 323 313 319 330 330 353 63 180 239 263 251 228 267 284 290 295 295 285 205 213 69 40 9 8 356 1 18 2 354 344 342 350 345 338 329 323 320 312 326 327 322 323 323 322 323 324 325 325 323 322 322 322 322 321 320 318 317 318 317 318 318 313 307 306 307 306 302 301 305 310 310 307 303 302 303 302 299 300
357 200 267 288 316 330 322 290 256 252 284 329 344 311 307 284 256 273 255 162 248 283 292 302 301 292 145 89 76 48 25 40 36 8 353 335 337 335 340 342 332 327 320 312 308 310 319 321 320 320 320 319 321 323 324 324 322 322 323 322 323 321 320 318 319 320 318 318 317 313 309 308 308 307 305 305 307 308 306 304 302 306 308 303 301 307
311 198 252 294 326 320 280 247 191 183 176 175 224 244 251 256 299 300 288 252 146 250 269 290 294 288 152 116 81 55 47 77 80 357 327 319 331 333 334 333 324 320 314 304 301 309 317 320 319 318 318 319 321 322 323 323 323 323 323 323 323 321 320 321 321 320 320 319 316 314 312 312 310 309 308 306 306 305 304 306 308 311 309 304 307 316
240 128 262 277 268 265 276 280 124 167 174 169 213 201 177 179 126 264 282 296 303 260 251 270 282 288 160 131 88 63 69 88 66 351 337 330 331 332 331 328 322 316 310 302 302 315 320 321 318 317 318 319 321 322 323 324 324 324 324 323 322 322 322 322 321 321 321 319 317 315 315 314 312 311 309 307 306 307 308 310 309 308 307 307 311 317
287 60 321 286 266 260 274 313 98 112 96 138 268 246 182 221 201 223 255 303 310 280 290 284 281 291 163 161 72 36 30 23 7 354 345 334 331 333 330 327 322 315 311 305 308 319 321 319 317 317 318 320 322 323 323 324 325 325 324 323 323 324 324 324 322 322 322 320 318 317 316 315 313 313 313 312 311 310 309 308 306 307 308 310 314 316
306 320 341 327 325 318 322 353 350 312 12 258 262 263 224 254 282 270 269 343 302 260 254 272 284 296 265 248 353 8 8 3 353 346 343 334 330 329 325 323 318 314 313 311 316 321 319 318 318 317 320 322 322 322 323 324 325 325 324 324 325 326 326 325 324 323 323 320 319 319 318 317 316 316 317 316 313 311 309 307 306 309 312 314 315 315
278 247 98 358 319 315 319 318 311 317 324 293 277 289 292 278 274 280 294 321 286 273 255 223 274 293 304 320 343 358 0 352 342 338 337 331 326 323 319 317 316 314 316 317 321 322 319 318 318 319 322 323 323 323 324 325 325 325 325 325 327 328 327 327 325 324 324 322 321 320 319 319 320 320 318 316 313 312 311 310 310 312 315 316 314 313
86 279 215 194 215 253 271 276 293 320 315 299 298 299 304 300 241 221 313 288 276 287 287 265 282 299 311 325 341 357 353 339 332 330 330 327 325 323 319 316 315 315 318 322 323 321 320 320 319 321 323 323 324 324 325 326 326 326 327 328 330 330 328 327 326 325 325 324 322 321 321 322 322 321 318 316 315 316 315 314 314 314 315 315 314 311
78 308 258 221 227 247 263 275 290 305 291 287 294 296 301 308 288 206 234 268 279 296 295 295 306 310 313 328 347 352 341 333 328 325 325 325 325 324 321 317 317 322 328 325 322 322 322 322 321 323 325 325 325 325 326 328 328 328 330 331 331 330 329 328 326 325 326 325 323 322 323 323 322 320 319 319 318 318 318 317 316 315 315 315 314 312
114 259 254 239 257 263 269 278 286 290 281 277 282 286 292 302 298 271 255 269 281 283 286 301 313 310 310 330 350 345 338 331 325 322 323 324 325 325 322 320 323 332 330 323 322 325 324 323 323 324 325 326 327 327 328 330 330 330 332 333 332 330 329 328 327 326 327 326 325 324 323 323 322 321 321 321 321 320 319 319 318 316 315 315 314 313
139 257 263 263 283 282 279 279 281 283 284 286 288 289 292 293 287 281 276 281 281 268 279 300 308 305 312 344 346 337 333 325 320 322 325 326 327 324 321 324 332 331 325 324 327 327 324 323 324 324 326 327 327 328 332 334 333 333 334 334 333 331 330 329 328 327 328 327 325 324 323 323 324 324 324 323 323 322 320 319 318 317 317 316 315 314
33 283 317 39 313 296 287 283 286 285 283 288 291 293 299 304 305 309 305 302 299 293 297 305 305 303 331 358 336 327 327 325 324 326 327 326 323 321 324 331 333 325 325 330 329 326 326 325 323 325 327 328 329 332 336 337 336 335 334 334 333 331 331 330 328 328 327 326 325 326 326 326 326 325 325 324 323 321 319 318 318 318 318 316 314 312
11 295 349 39 338 298 297 314 315 309 298 293 300 308 317 327 333 309 285 295 309 309 309 310 308 312 342 340 326 323 327 327 324 323 324 322 320 324 330 330 326 325 328 330 327 326 326 323 323 326 327 327 331 338 341 341 339 337 335 333 331 331 331 330 329 329 326 325 327 329 328 327 326 326 325 323 321 319 318 318 320 319 317 314 313 312
87 319 324 15 324 298 310 325 315 312 319 325 322 322 328 332 323 301 294 304 309 309 311 315 321 328 333 330 324 323 326 325 322 323 321 317 321 330 329 321 323 327 327 327 327 326 323 320 323 325 326 328 335 342 343 342 339 337 335 332 329 330 331 331 330 328 326 328 330 329 329 330 331 327 323 321 320 319 320 320 319 318 315 313 311 309
90 49 290 214 272 296 309 324 323 324 339 336 332 120 66 326 313 310 315 315 313 317 329 334 332 330 329 325 320 318 320 322 323 319 315 317 328 329 319 319 323 323 324 325 325 323 321 321 323 325 328 334 341 344 343 342 339 336 333 330 329 331 332 331 329 327 328 330 330 330 335 336 331 324 319 319 320 320 320 319 317 315 313 311 310 308
54 3 284 203 192 275 303 343 348 329 315 316 333 123 231 280 295 306 312 316 323 338 352 341 327 321 317 313 313 315 316 318 317 311 311 322 333 320 315 320 323 322 324 325 323 323 324 324 324 328 336 344 346 345 344 342 339 334 332 330 330 332 333 330 327 329 331 330 331 337 340 335 327 321 319 319 319 319 319 317 316 314 313 311 308 306
201 323 294 241 243 299 333 354 334 301 301 320 11 33 317 321 336 326 317 323 347 6 352 331 315 309 309 309 312 316 315 314 311 306 314 330 332 325 321 322 323 324 325 324 324 326 327 328 329 336 348 351 347 346 345 342 338 333 330 331 332 334 333 329 329 333 331 330 337 343 339 331 325 322 321 320 319 318 318 317 315 313 311 310 307 304
130 113 353 325 282 333 328 313 291 293 306 345 32 8 347 340 341 330 317 323 38 34 343 328 315 314 317 314 316 317 315 313 309 311 329 336 333 331 327 323 323 322 322 324 327 329 331 333 337 348 355 349 346 348 346 341 337 332 329 332 335 335 332 331 333 334 330 332 343 341 334 327 324 323 321 320 319 317 316 315 313 311 310 309 306 303
100 143 137 327 310 48 325 306 306 315 321 16 11 353 1 345 326 319 308 303 41 359 342 335 324 321 322 320 320 319 316 315 314 323 336 336 333 333 328 324 324 323 325 329 331 333 336 340 346 354 352 347 347 348 345 340 335 332 332 335 337 334 333 336 335 331 330 339 343 337 331 327 324 322 320 318 316 315 314 313 311 309 308 306 302 299
26 27 121 114 298 322 327 306 302 304 305 349 349 348 3 336 315 311 304 308 357 350 341 334 326 324 325 324 324 324 323 322 320 326 334 334 335 334 328 326 328 329 332 335 335 336 341 347 351 351 350 351 349 345 343 339 334 333 337 338 336 335 337 337 332 329 335 342 338 332 328 325 323 321 319 316 314 313 312 311 309 307 305 302 298 297
6 5 52 27 297 300 310 291 273 268 274 341 346 345 344 328 324 331 326 327 346 345 337 331 327 327 328 326 326 328 328 324 321 325 331 333 333 332 330 331 333 334 337 336 337 342 351 354 352 352 354 352 347 344 342 337 335 339 341 337 335 338 339 333 329 333 340 338 333 329 326 325 324 321 318 315 314 313 311 309 308 307 305 302 300 299
350 346 28 351 298 306 309 291 288 284 273 332 343 348 346 338 347 3 333 324 337 336 331 332 331 328 328 328 327 326 323 322 321 324 330 332 332 332 334 336 337 337 337 336 341 355 1 354 352 354 352 348 345 344 341 338 341 344 340 336 338 339 334 330 333 340 339 333 329 327 327 326 325 322 317 314 313 312 311 312 310 308 306 306 305 303
348 329 327 333 306 302 298 300 312 306 338 357 351 358 5 357 355 351 327 326 331 329 329 334 332 328 330 330 327 323 320 323 326 329 332 334 333 334 337 339 339 337 336 340 352 4 2 355 352 348 346 347 349 346 342 341 344 342 338 339 339 335 332 336 341 341 335 329 326 327 328 327 325 322 319 316 316 315 314 315 314 312 310 309 308 307
323 317 320 312 295 306 307 316 323 309 3 10 359 359 13 5 344 331 328 327 327 328 331 334 331 332 334 331 328 326 324 328 334 335 333 333 334 336 339 341 339 337 342 350 360 4 1 354 347 344 346 351 350 345 342 342 341 339 340 339 335 335 340 344 343 338 332 328 327 328 329 328 326 325 323 321 322 320 318 318 319 317 316 315 313 311
271 311 317 293 294 341 326 306 306 310 352 11 1 346 350 352 341 334 330 326 328 333 333 332 334 338 337 333 331 330 329 334 337 335 332 333 336 340 340 340 341 343 349 355 1 3 359 350 343 348 354 352 347 344 343 343 341 341 340 336 336 343 348 345 340 335 331 329 329 330 330 328 328 328 327 326 326 324 321 321 321 321 321 320 316 312
248 223 229 255 247 248 269 277 292 319 356 3 351 333 339 342 339 337 331 326 330 334 336 338 338 338 337 335 332 330 333 337 335 333 335 335 338 341 339 339 344 347 348 352 358 359 354 349 351 356 353 347 345 344 343 344 344 340 336 337 345 350 347 343 338 334 330 331 332 331 330 329 330 330 330 330 330 327 324 324 324 322 322 323 321 316
254 229 199 266 276 263 262 280 306 338 347 342 337 337 338 338 338 338 334 332 334 336 339 341 337 335 335 335 334 334 336 335 333 335 338 337 337 339 338 340 347 348 347 354 358 354 352 356 359 354 347 344 345 344 345 347 345 338 337 347 352 349 344 341 337 333 332 333 333 332 332 332 331 332 333 333 333 330 327 325 323 319 320 322 323 321
286 259 227 287 308 313 301 299 326 341 334 327 331 337 338 340 344 344 340 336 334 336 341 341 337 334 335 336 338 337 335 334 337 338 338 337 337 337 339 346 349 346 348 355 354 351 355 359 356 350 345 343 343 345 347 346 343 344 349 352 349 345 342 339 335 333 334 335 333 333 334 333 332 333 333 334 335 334 331 329 326 320 318 320 322 323
298 283 294 310 313 304 292 299 328 331 315 313 333 340 341 342 344 346 343 335 332 336 343 344 341 336 334 339 342 338 335 338 341 338 335 337 339 339 343 347 346 344 347 350 349 351 356 356 351 346 342 341 343 346 346 344 347 354 355 349 345 343 341 338 336 335 334 335 335 334 334 334 333 334 333 334 335 334 332 331 329 324 320 321 324 325
307 322 311 312 308 296 296 321 340 335 325 335 347 344 342 341 340 342 340 334 336 343 346 346 343 339 338 342 344 339 338 341 340 337 337 340 342 343 345 345 344 345 346 347 349 354 354 350 346 343 341 342 344 344 344 349 354 355 351 346 344 343 340 337 337 336 336 337 336 334 334 335 335 335 334 334 334 334 333 333 330 324 325 333 338 337
345 335 322 320 318 314 322 339 346 337 326 332 340 339 339 342 342 340 338 338 344 352 352 346 339 337 340 345 345 343 341 340 338 339 342 344 343 344 344 343 344 347 348 349 353 353 350 347 344 342 342 343 343 344 349 356 354 350 348 346 344 343 341 339 339 338 338 337 336 334 335 335 334 335 335 333 333 334 335 338 338 334 336 344 346 346
344 325 324 322 306 305 318 330 339 326 310 318 330 334 339 343 341 338 340 344 350 356 354 345 335 335 340 343 346 346 342 339 342 346 348 345 343 344 345 345 347 349 350 352 353 350 346 345 344 343 343 343 344 350 356 355 351 348 347 346 345 345 344 343 342 339 337 336 335 335 335 334 333 334 334 334 335 334 332 336 340 344 349 352 351 352